Find Kiku-4

NORAD ID: 13492 Int'l Des: 1982-087 Owner: NASDA Country: J operational
LEOCIRCULAR

Live-Position

3D-Globus wird geladen...

Über Kiku-4

Beschreibung wird geladen...

Nächste Überflüge

Passes for default location (London). Set your location on the main map for personalized predictions.

Höhenverlauf

Loading altitude history...

Zweizeiliger Elementsatz

1 13492U 82087A 26105.21512784 -.00000072 00000-0 50531-4 0 9996
2 13492 44.6153 205.8622 0011785 198.0390 177.3898 13.71265728183974
Epoch: 15. Apr. 2026 • Age: 4 hours

Aktueller Status

Höhe 993.5 km
Geschwindigkeit 7.36 km/s
Subsatellitenpunkt 33.36°N, 1.83°E
Startdatum 3. Sept. 1982
Alter 43.6 years
Typ other

Technische Details

Klassifizierung Payload
Masse 385.00 kg
Trockenmasse 366.00 kg
Gesamtmasse 385.00 kg
Länge 2.10 m
Durchmesser 1.10 m
Spannweite 6.50 m
Form Box + 2 Wing
Hersteller TOSH
Bus-Typ ETS-3
Phasenstatus In Orbit
Besitzer/Staat NASDA/J

Most Searched